Tracking 29892 objects as of 21-Nov-2024
HD Live streaming from Space Station
objects crossing your sky now

STARLINK-30573

Track STARLINK-30573 now!
10-day predictions
STARLINK-30573 is classified as:


NORAD ID: 58058
Int'l Code: 2023-158H
Perigee: 565.2 km
Apogee: 567.2 km
Inclination: 43.0 °
Period: 95.8 minutes
Semi major axis: 6937 km
RCS: Unknown
Launch date: October 13, 2023
Source: United States (US)
Launch site: AIR FORCE EASTERN TEST RANGE (AFETR)
Your satellite tracking list
Your tracking list is empty




NASA's NSSDC Master Catalog

Two Line Element Set (TLE):
1 58058U 23158H   24325.38783729  .00000894  00000-0  81219-4 0  9994
2 58058  43.0029  87.5875 0001511 272.8680  87.1990 15.02541759 62187
Source of the keplerian elements: AFSPC